Location: Unspecified
(50.7693°N, 0.0000°E)
Time: 12:53:50
(UTC+00:00)

A-11 Canister half - Pass Details

Date: 20 June 2019
Orbit: 1526 x 1683 km, 47.3° (Epoch: 16 August)

Event Time Altitude Azimuth Distance (km) Brightness Sun altitude
Rises 03:29:20 0° 192° (SSW) 4,745 11.1 -2.8°
Reaches altitude 10° 03:33:19 10° 178° (S) 3,741 10.7 -2.4°
Maximum altitude 03:39:58 22° 132° (SE) 2,879 10.6 -1.6°
Drops below altitude 10° 03:46:31 10° 87° (E) 3,700 12.0 -0.8°
Sets 03:50:24 0° 73° (ENE) 4,682 13.1 -0.3°
